Probability
0 0 0 0 0 0 0 0 0 0 0 0 0 0 0 0 0 0 0 0 0 0 0 0 0 0 0 0 0 0 0 0 0 0 0 0 0 0 0 0 0 0 0 0
0 0 0 0 0 0 0 0 0 0 0 0 0 0 0 0 0 0 0 0 0 0 0 0 0 0 0 0 0 0 0 0 0 0 0 0 0 0 0 0 0 0 0 0
0 0 0 0 0 0 0 0 0 0 0 0 0 0 0 0 0 0 0 0 0 0 0 0 0 0 0 0 0 0 0 0 0 0 0 0 0 0 0 0 0 0 0 0
0 0 0 0 0 0 0 0 0 0 0 0 0 0 0 0 0 0 0 0 0 0 0 0 0 0 0 0 0 0 0 0 0 0 0 0 0 0 0 0 0 1 1 1
0 0 0 0 0 0 0 0 0 0 0 0 0 0 0 0 0 0 0 0 0 0 0 0 0 0 0 0 0 0 0 0 0 0 0 0 0 0 0 0 0 1 1 1
0 0 0 0 0 0 0 0 0 0 0 0 0 0 0 0 0 0 0 0 0 0 0 0 0 0 0 0 0 0 0 0 0 0 0 0 0 0 0 0 0 0 0 0
0 0 0 0 0 0 0 0 0 0 0 0 0 0 0 0 0 0 0 0 0 0 0 0 0 0 0 0 0 0 0 0 0 0 0 0 0 0 0 0 0 0 0 0
0 0 0 0 0 0 0 0 0 0 0 0 0 0 0 0 0 0 0 0 0 0 0 0 0 0 0 0 0 0 0 0 0 0 0 0 0 0 0 0 0 0 0 0
0 0 0 0 0 0 0 0 0 0 0 0 0 0 0 0 0 0 0 0 0 0 0 0 0 0 0 0 0 0 0 0 0 0 0 0 0 0 0 0 0 0 0 0
0 0 0 0 0 0 0 0 0 0 0 0 0 0 0 0 0 0 0 0 0 0 0 0 0 0 0 0 0 0 0 0 0 0 0 0 0 0 0 0 0 0 0 0
0 0 0 0 0 0 0 0 0 0 0 0 0 0 0 0 0 0 0 0 0 0 0 0 0 0 0 0 0 0 0 0 0 0 0 0 0 0 0 0 0 0 0 0
0 0 0 0 0 0 0 0 0 0 0 0 0 0 0 0 0 0 0 0 0 0 0 0 0 0 0 0 0 0 0 0 0 0 0 0 0 0 0 0 0 0 0 0
0 0 0 0 0 0 0 0 0 0 0 0 0 0 0 0 0 0 0 0 0 0 0 0 0 0 0 0 0 0 0 0 0 0 0 0 0 0 0 0 0 0 0 0
0 0 0 0 0 0 0 0 0 0 0 0 0 0 0 0 0 0 0 0 0 0 0 0 0 0 0 0 0 0 0 0 0 0 0 0 0 0 0 0 0 0 0 0
0 0 0 0 0 0 0 0 0 0 0 0 0 0 0 0 0 0 0 0 0 0 0 0 0 0 0 0 0 0 0 0 0 0 0 0 0 0 0 0 0 0 0 0
0 0 0 0 0 0 0 0 0 0 0 0 0 0 0 0 0 0 0 0 0 0 0 0 0 0 0 0 0 0 0 0 0 0 0 0 0 0 0 0 0 0 0 0
0 0 0 0 0 0 0 0 0 0 0 0 0 0 0 0 0 0 0 0 0 0 0 0 0 0 0 0 0 0 0 0 0 0 0 0 0 0 0 0 0 0 0 0
0 0 0 0 0 0 0 0 0 0 0 0 0 0 0 0 0 0 0 0 0 0 0 0 0 0 0 0 0 0 0 0 0 0 0 0 0 0 0 0 0 0 0 0
0 0 0 0 0 0 0 0 0 0 0 0 0 0 0 0 0 0 0 0 0 0 0 0 0 0 0 0 0 0 0 0 0 0 0 0 0 0 0 0 0 0 0 0
0 0 0 0 0 0 0 0 0 0 0 0 0 0 0 0 0 0 0 0 0 0 0 0 0 0 0 0 0 0 0 0 0 0 0 0 0 0 0 0 0 0 0 0
0 0 0 0 0 0 0 0 0 0 0 0 0 0 0 0 0 0 0 0 0 0 0 0 0 0 0 0 0 0 0 0 0 0 0 0 0 0 0 0 0 0 0 0
0 0 0 0 0 0 0 0 0 0 0 0 0 0 0 0 0 0 0 0 0 0 0 0 0 0 0 0 0 0 0 0 0 0 0 0 0 0 0 0 0 0 0 0
0 0 0 0 0 0 0 0 0 0 0 0 0 0 0 0 0 0 0 0 0 0 0 0 0 0 0 0 0 0 0 0 0 0 0 0 0 0 0 0 0 0 0 0
0 0 0 0 0 0 0 0 0 0 0 0 0 0 0 0 0 0 0 0 0 0 0 0 0 0 0 0 0 0 0 0 0 0 0 0 0 0 0 0 0 0 0 0
0 0 0 0 0 0 0 0 0 0 0 0 0 0 0 0 0 0 0 0 0 0 0 0 0 0 0 0 0 0 0 0 0 0 0 0 0 0 0 0 0 0 0 0
0 0 0 0 0 0 0 0 0 0 0 0 0 0 0 0 0 0 0 0 0 0 0 0 0 0 0 0 0 0 0 0 0 0 0 0 0 0 0 0 0 0 0 0
0 0 0 0 0 0 0 0 0 0 0 0 0 0 0 0 0 0 0 0 0 0 0 0 0 0 0 0 0 0 0 0 0 0 0 0 0 0 0 0 0 0 0 0
Wind_Speed
5 4 3 5 5 6 8 8 8 8 8 9 6 5 4 3 2 2 3 3 3 4 4 4 4 4 4 4 4 4 4 5 5 5 5 5 5 5 5 6 6 6 6 6
3 2 2 4 6 7 8 7 8 8 10 7 4 2 2 3 3 3 4 5 5 5 5 5 5 5 5 5 5 4 5 6 6 5 5 5 5 5 6 6 6 6 7 7
3 2 2 6 7 8 6 6 7 10 9 3 3 4 4 5 4 5 5 5 5 5 5 5 5 5 6 5 5 5 5 6 6 5 5 6 6 6 6 6 6 6 7 7
1 1 6 7 2 5 6 5 5 5 4 3 4 4 4 4 4 5 5 5 5 5 5 5 5 5 5 5 5 5 6 6 6 5 6 6 6 6 6 6 6 6 7 7
2 3 7 6 2 2 4 5 4 6 5 4 2 3 3 3 3 4 5 5 5 5 5 5 5 5 4 5 5 5 6 6 6 6 6 6 6 6 6 5 6 6 6 6
3 3 7 5 2 1 2 4 2 3 3 3 1 2 4 2 3 4 4 4 4 4 4 5 5 4 4 5 5 6 7 7 6 6 6 7 7 6 5 5 6 6 6 6
4 5 7 4 3 1 3 5 2 2 2 2 3 4 4 4 4 4 4 4 4 4 4 5 5 4 5 5 6 7 7 6 6 6 6 6 6 5 5 5 5 5 6 5
3 4 7 1 2 3 4 2 1 1 1 2 4 4 4 4 4 4 4 4 4 4 5 5 4 4 5 6 6 6 6 6 6 6 5 4 5 4 4 4 5 5 5 5
6 6 2 2 2 3 2 2 2 2 2 2 3 4 4 4 4 4 4 5 4 4 6 6 5 4 6 7 6 6 6 6 6 5 4 3 4 4 4 4 4 4 4 4
3 5 4 3 2 3 2 2 2 2 3 2 3 4 5 4 4 4 4 4 4 4 5 6 5 5 5 6 6 5 6 5 5 4 4 3 3 3 3 3 4 4 4 4
4 5 4 3 3 4 3 2 2 3 2 2 3 4 4 4 5 4 5 4 4 4 5 7 6 6 6 6 5 5 5 5 5 4 4 4 3 3 4 4 4 5 4 4
5 4 3 5 4 2 2 3 3 2 3 2 2 3 4 4 4 4 5 4 4 5 6 6 6 6 7 6 5 4 5 5 4 3 3 3 4 4 6 6 7 8 8 7
4 3 3 4 3 2 1 2 2 2 2 3 3 3 3 3 4 4 4 4 5 5 5 5 6 6 7 6 5 5 5 5 4 4 4 4 3 4 5 6 6 7 8 8
2 2 2 3 3 2 1 2 2 2 2 2 2 3 3 3 4 4 5 5 5 5 5 5 5 6 7 6 6 5 5 5 5 4 4 4 4 4 3 4 5 4 6 8
3 3 3 2 2 2 2 2 2 3 3 3 2 2 3 4 5 5 5 5 5 5 5 5 6 7 7 6 6 6 5 4 4 4 3 3 4 3 3 4 4 4 4 5
4 2 1 1 2 2 2 2 2 3 3 3 3 4 4 4 4 5 5 4 4 5 6 6 6 7 7 6 6 5 4 7 6 4 3 3 3 3 3 3 4 4 4 4
1 2 2 3 3 3 3 2 2 3 3 4 4 4 4 4 4 5 5 5 4 4 5 5 6 7 7 6 5 4 4 5 7 5 3 3 3 3 3 3 3 4 4 5
3 3 3 3 3 3 3 3 3 3 3 4 4 3 3 3 4 5 5 5 5 5 5 5 6 6 7 6 5 4 4 4 4 3 3 3 4 3 3 3 4 4 4 5
2 2 2 2 2 2 2 3 3 3 3 3 3 3 3 3 4 4 4 4 5 5 6 6 10 7 7 8 7 4 4 5 4 4 4 5 5 4 3 3 4 4 4 4
3 2 2 2 2 1 2 3 3 3 3 2 2 3 3 4 4 4 4 4 4 4 6 7 6 6 6 7 8 4 5 5 4 4 4 3 4 4 4 4 4 4 4 4
2 2 2 2 2 2 2 2 2 3 3 2 2 3 3 4 3 3 3 4 5 6 6 9 6 5 5 6 6 4 4 4 4 4 4 4 4 4 4 4 4 4 4 4
2 2 2 2 2 3 3 2 2 2 3 3 2 2 3 3 4 3 3 3 5 9 6 4 5 7 8 7 4 4 4 4 4 3 3 4 4 4 4 4 4 4 4 4
2 2 2 2 2 2 3 3 2 2 2 2 2 3 3 3 3 3 4 4 4 9 6 4 8 11 11 5 4 4 4 4 4 4 4 4 4 4 4 4 4 4 4 4
2 2 2 1 1 1 2 3 3 2 2 2 2 2 2 3 3 2 3 7 10 10 5 7 12 12 10 4 4 4 4 4 4 4 4 3 3 3 4 4 4 4 4 5
1 1 1 1 1 1 2 2 2 2 2 2 3 3 2 2 2 4 4 5 8 9 5 8 11 11 6 4 4 4 4 4 4 4 3 3 3 3 4 4 4 4 4 4
1 1 1 1 1 1 1 1 1 2 2 3 3 3 3 2 3 3 3 4 6 8 5 4 5 7 4 4 4 4 4 5 5 4 4 4 4 4 4 4 5 4 4 4
1 1 1 1 1 1 1 1 2 2 2 3 3 3 3 3 3 3 4 4 4 4 4 4 4 4 4 4 4 4 4 4 4 4 4 4 4 4 4 4 4 4 4 4
Wind_Direction
260 266 224 230 226 203 207 210 216 239 242 263 262 250 249 244 262 278 285 285 284 286 284 286 291 289 281 282 280 278 274 274 271 274 266 258 255 252 248 248 248 250 251 247
279 279 249 269 252 223 229 231 238 258 268 267 271 260 257 257 258 267 276 279 283 287 290 290 289 291 293 288 287 283 276 275 275 275 278 266 257 257 251 249 247 247 249 245
251 286 5 270 236 206 210 216 204 232 247 267 285 261 249 248 246 252 266 275 277 278 279 280 281 282 283 283 287 282 277 277 274 273 276 274 261 254 249 245 249 248 246 241
202 84 234 245 211 192 201 239 224 238 256 247 252 269 266 245 232 256 271 274 276 277 279 279 279 282 284 287 281 276 275 276 279 279 277 278 268 253 249 248 247 248 249 241
179 219 267 288 253 186 195 263 231 228 254 274 309 331 299 255 232 256 270 275 274 272 276 280 280 282 287 287 286 281 277 278 280 277 271 269 266 261 253 251 253 249 246 241
185 206 237 257 273 259 120 279 263 206 241 267 12 298 274 298 313 304 297 291 290 292 292 288 286 283 281 283 283 280 279 280 279 272 263 262 263 263 260 254 253 253 253 246
207 228 257 271 289 105 164 259 300 220 236 245 228 237 273 302 309 305 301 301 302 300 295 290 292 288 283 283 277 280 284 284 280 271 263 261 262 263 260 261 260 254 254 255
178 211 252 296 106 178 234 293 302 262 247 248 261 282 295 299 303 308 310 310 307 306 305 305 301 292 287 286 290 294 292 289 285 280 271 265 259 263 259 252 256 255 256 264
198 218 254 183 208 260 272 276 285 277 283 270 281 289 297 298 297 302 304 305 307 304 307 311 309 299 291 295 302 302 299 297 295 293 287 278 263 261 261 248 247 251 250 259
255 268 275 268 283 311 300 271 280 281 288 281 275 286 296 296 300 304 306 307 308 309 310 312 315 313 302 305 307 303 303 303 303 301 298 294 284 269 261 247 244 250 252 257
257 283 312 285 262 275 290 305 313 314 299 278 272 289 293 297 299 302 306 308 308 308 307 310 316 318 315 314 313 310 308 308 310 306 304 298 292 278 272 259 250 254 249 247
235 241 232 265 275 282 289 297 295 304 316 317 286 287 299 298 300 302 304 309 312 310 307 311 317 318 319 320 318 313 313 315 312 310 307 301 300 306 302 292 291 283 278 270
246 269 251 272 301 317 286 295 309 303 285 306 315 304 301 299 303 308 311 315 311 308 310 315 319 320 322 324 323 318 312 312 309 307 303 301 301 303 310 318 311 302 299 293
279 306 293 291 299 314 316 323 332 332 320 309 308 315 315 309 310 312 310 307 308 311 314 317 320 319 319 323 324 319 313 309 308 303 302 302 301 299 298 304 314 316 315 308
296 274 249 278 318 337 342 346 349 335 333 332 325 321 319 314 310 308 308 312 319 323 323 324 323 318 321 323 322 318 315 312 308 306 305 306 307 307 308 307 306 308 315 318
307 318 307 306 312 323 333 330 322 314 318 318 319 317 311 306 305 310 315 321 323 321 321 322 319 317 323 324 321 318 314 316 320 316 315 315 315 313 311 311 311 310 311 312
292 298 298 300 300 306 306 297 289 295 302 304 307 309 314 320 322 325 328 331 324 315 314 316 314 319 324 325 320 317 318 320 326 325 319 315 314 311 312 315 313 311 309 314
250 257 254 249 259 279 301 306 302 300 296 296 305 311 317 318 313 315 321 326 328 327 324 320 320 325 328 326 323 319 318 317 317 317 318 317 317 318 320 317 317 316 317 322
302 290 288 285 273 270 284 293 299 302 302 304 309 308 304 302 303 308 316 325 328 326 324 324 333 338 327 326 332 323 323 321 321 323 321 322 329 329 325 322 322 323 324 326
345 344 346 336 327 305 298 299 303 308 308 307 309 312 318 317 315 314 316 312 302 297 305 322 330 323 321 324 336 334 332 328 326 325 327 328 327 327 328 326 327 327 329 329
335 337 340 336 328 324 312 304 304 308 313 315 311 309 310 313 316 315 319 319 317 317 323 331 332 321 322 332 341 338 332 330 329 329 329 328 328 328 330 331 330 330 330 332
309 314 318 322 327 327 322 316 307 306 315 321 322 321 321 322 324 320 301 292 308 325 334 324 320 328 337 345 341 332 329 328 327 328 328 326 326 327 329 330 329 329 333 334
294 291 298 306 306 305 315 321 317 312 311 313 315 315 313 310 312 316 316 315 316 326 334 321 329 338 346 355 343 338 334 331 329 328 325 322 322 324 325 328 330 332 334 333
294 298 298 302 311 331 334 329 331 331 320 313 311 308 310 319 319 306 292 316 328 332 335 330 339 343 351 353 339 336 333 329 326 324 324 326 329 329 328 329 329 330 330 330
304 304 311 338 341 327 316 325 337 339 338 332 324 320 316 303 297 309 316 318 325 334 334 334 340 344 349 335 332 330 328 325 325 326 330 330 330 329 327 326 325 324 325 325
325 324 315 308 299 302 310 319 324 323 329 331 327 326 327 320 310 309 313 315 319 331 333 324 327 333 332 326 324 323 322 324 331 333 327 324 324 323 322 322 321 319 319 317
351 352 351 350 343 329 320 318 316 315 314 309 311 320 325 326 325 322 319 318 321 323 320 319 320 321 322 322 321 321 319 319 319 319 320 318 316 314 314 313 311 310 310 311